Location: Calvatone
(45.1167°N, 10.4333°E)
Time: 21:37:21
(UTC+00:00)

PCSat - Pass Details

Date: 06 December 2023
Orbit: 784 x 792 km, 67.0° (Epoch: 03 March)

Event Time Altitude Azimuth Distance (km) Brightness Sun altitude
Exits shadow 05:14:58 19° 312° (NW) 1,804 10.9 -14.7°
Maximum altitude 05:15:38 19° 322° (NW) 1,785 10.9 -14.6°
Drops below altitude 10° 05:19:30 10° 8° (N) 2,359 11.9 -13.9°
Sets 05:22:37 0° 26° (NNE) 3,293 12.9 -13.4°
